Change the Weather History Date:

Thursday, February 13, 2014

  Actual Average Record
Temperature  
Mean Temperature 10 °F -  
Max Temperature 19 °F 25 °F 53 °F (1997)
Min Temperature 0 °F 3 °F -22 °F (1997)
Degree Days  
Heating Degree Days 55    
Moisture  
Dew Point 11 °F    
Average Humidity 89    
Maximum Humidity 100    
Minimum Humidity 78    
Precipitation  
Precipitation 0.09 in - - ()
Sea Level Pressure  
Sea Level Pressure 29.55 in    
Wind  
Wind Speed 7 mph (NE)    
Max Wind Speed 16 mph    
Max Gust Speed 22 mph    
Visibility 6 miles    
Events Snow    
Averages and records for this station are not official NWS values.
T = Trace of Precipitation, MM = Missing Value Source: NWS Daily Summary

Daily Weather History Graph

Daily Weather History Graph

Search for Another Location

Airport or City:

Trip Planner

Search our weather history database for the weather conditions in past years. The results will help you decide how hot, cold, wet, or windy it might be!

Date:

Astronomy

Feb. 13, 2014 Rise Set
Actual Time 7:13 AM CST 5:26 PM CST
Civil Twilight 6:42 AM CST 5:58 PM CST
Nautical Twilight 6:06 AM CST 6:34 PM CST
Astronomical Twilight 5:30 AM CST 7:09 PM CST
Moon 4:35 PM CST (2/13) 6:08 AM CST (2/13)
Length of Visible Light 11h 16m
Length of Day
10h 12m
Waxing Gibbous, 99% of the Moon is Illuminated
Feb 13
Waxing Gibbous
Feb 14
Full
Feb 22
Last Quarter
Mar 1
New
Mar 8
First Quarter

Hourly Weather History & Observations

Time (CST) Temp. Windchill Dew Point Humidity Pressure Visibility Wind Dir Wind Speed Gust Speed Precip Events Conditions
12:13 AM 5.0 °F - -0.4 °F 78% 29.79 in 10.0 mi Calm Calm - N/A   Clear
12:33 AM 8.6 °F - 3.2 °F 79% 29.78 in 10.0 mi Calm Calm - N/A   Clear
12:53 AM 10.4 °F - 6.8 °F 85% 29.77 in 10.0 mi Calm Calm - N/A   Clear
1:13 AM 14.0 °F 6.5 °F 8.6 °F 79% 29.76 in 10.0 mi East 4.6 mph - N/A   Clear
1:33 AM 15.8 °F 6.1 °F 10.4 °F 79% 29.75 in 10.0 mi ESE 6.9 mph - N/A   Scattered Clouds
1:53 AM 15.8 °F 4.2 °F 10.4 °F 79% 29.73 in 10.0 mi East 9.2 mph - N/A   Scattered Clouds
2:13 AM 15.8 °F 3.4 °F 12.2 °F 86% 29.72 in 10.0 mi East 10.4 mph - N/A   Scattered Clouds
2:33 AM 15.8 °F 4.2 °F 12.2 °F 86% 29.71 in 10.0 mi East 9.2 mph 16.1 mph N/A   Scattered Clouds
2:53 AM 15.8 °F 3.4 °F 12.2 °F 86% 29.69 in 10.0 mi East 10.4 mph 16.1 mph N/A   Scattered Clouds
3:13 AM 15.8 °F 3.4 °F 12.2 °F 86% 29.68 in 10.0 mi East 10.4 mph - N/A   Scattered Clouds
3:33 AM 15.8 °F 3.4 °F 12.2 °F 86% 29.66 in 10.0 mi East 10.4 mph - N/A   Scattered Clouds
3:53 AM 15.8 °F 3.4 °F 12.2 °F 86% 29.65 in 10.0 mi East 10.4 mph 16.1 mph N/A   Scattered Clouds
4:13 AM 15.8 °F 2.7 °F 14.0 °F 93% 29.63 in 10.0 mi East 11.5 mph 16.1 mph N/A   Scattered Clouds
4:33 AM 15.8 °F 2.7 °F 14.0 °F 93% 29.62 in 2.0 mi East 11.5 mph 17.3 mph N/A Snow Light Snow
4:53 AM 15.8 °F 3.4 °F 14.0 °F 93% 29.61 in 1.0 mi East 10.4 mph 19.6 mph N/A Snow Light Snow
5:13 AM 15.8 °F 2.1 °F 15.8 °F 100% 29.59 in 1.0 mi ENE 12.7 mph - N/A Snow Light Snow
5:33 AM 15.8 °F 2.7 °F 15.8 °F 100% 29.58 in 0.8 mi East 11.5 mph 19.6 mph N/A Snow Snow
5:53 AM 15.8 °F 1.4 °F 15.8 °F 100% 29.56 in 0.8 mi East 13.8 mph 19.6 mph N/A Snow Snow
6:13 AM 15.8 °F 2.1 °F 15.8 °F 100% 29.54 in 0.8 mi East 12.7 mph - 0.01 in Snow Snow
6:33 AM 15.8 °F 0.3 °F 15.8 °F 100% 29.52 in 0.8 mi East 16.1 mph 20.7 mph 0.02 in Snow Snow
6:53 AM 15.8 °F 2.7 °F 15.8 °F 100% 29.51 in 0.8 mi East 11.5 mph 21.9 mph N/A Snow Snow
7:13 AM 15.8 °F 1.4 °F 15.8 °F 100% 29.51 in 0.8 mi East 13.8 mph 17.3 mph 0.01 in Snow Snow
7:33 AM 15.8 °F 2.1 °F 15.8 °F 100% 29.50 in 1.0 mi ENE 12.7 mph 19.6 mph 0.01 in Snow Snow
7:53 AM 15.8 °F 1.4 °F 15.8 °F 100% 29.49 in 1.8 mi East 13.8 mph - N/A Snow Light Snow
8:13 AM 15.8 °F 3.4 °F 15.8 °F 100% 29.49 in 1.0 mi East 10.4 mph 19.6 mph N/A Snow Light Snow
8:33 AM 15.8 °F 2.7 °F 15.8 °F 100% 29.48 in - East 11.5 mph - 0.01 in   Unknown
8:53 AM 15.8 °F 2.7 °F 15.8 °F 100% 29.47 in - ENE 11.5 mph 19.6 mph N/A   Unknown
9:13 AM 15.8 °F 1.4 °F 15.8 °F 100% 29.47 in - ENE 13.8 mph 18.4 mph N/A   Unknown
9:33 AM 15.8 °F 4.2 °F 15.8 °F 100% 29.46 in - ENE 9.2 mph 17.3 mph N/A   Unknown
9:53 AM 15.8 °F 2.1 °F 15.8 °F 100% 29.46 in - NE 12.7 mph 18.4 mph N/A   Unknown
10:13 AM 17.6 °F 5.7 °F 15.8 °F 93% 29.45 in - NE 10.4 mph - N/A   Unknown
10:33 AM 17.6 °F 8.2 °F 15.8 °F 93% 29.44 in - ENE 6.9 mph - N/A   Unknown
10:53 AM 17.6 °F 8.2 °F 15.8 °F 93% 29.44 in - East 6.9 mph - N/A   Unknown
11:13 AM 17.6 °F 8.2 °F 15.8 °F 93% 29.44 in - ENE 6.9 mph - N/A   Unknown
11:33 AM 17.6 °F 9.3 °F 15.8 °F 93% 29.43 in 1.0 mi ENE 5.8 mph - 0.01 in   Unknown
11:53 AM 17.6 °F 10.7 °F 15.8 °F 93% 29.42 in 0.8 mi ENE 4.6 mph - 0.01 in Snow Light Snow
12:13 PM 17.6 °F 12.3 °F 15.8 °F 93% 29.41 in 0.5 mi NE 3.5 mph - 0.03 in Snow Light Snow
12:33 PM 19.4 °F 12.8 °F 15.8 °F 86% 29.40 in 1.0 mi NE 4.6 mph - 0.04 in Snow Light Snow
12:53 PM 19.4 °F - 15.8 °F 86% 29.40 in 2.0 mi Calm Calm - N/A Snow Light Snow
1:33 PM 17.6 °F - 15.8 °F 93% 29.40 in 1.2 mi Calm Calm - N/A Snow Light Snow
1:53 PM 17.6 °F - 15.8 °F 93% 29.40 in 1.0 mi Calm Calm - N/A Snow Light Snow
2:13 PM 19.4 °F - 15.8 °F 86% 29.41 in 2.0 mi Calm Calm - N/A Snow Light Snow
2:33 PM 19.4 °F 11.5 °F 15.8 °F 86% 29.41 in 2.0 mi NNW 5.8 mph - N/A Snow Light Snow
2:54 PM 19.4 °F 11.5 °F 15.8 °F 86% 29.42 in 4.0 mi North 5.8 mph - N/A Snow Light Snow
3:13 PM 19.4 °F 11.5 °F 15.8 °F 86% 29.44 in 3.0 mi NNW 5.8 mph - N/A Snow Light Snow
3:33 PM 19.4 °F 11.5 °F 15.8 °F 86% 29.45 in 5.0 mi NW 5.8 mph - N/A Snow Light Snow
3:53 PM 19.4 °F 11.5 °F 15.8 °F 86% 29.45 in 2.5 mi NW 5.8 mph - N/A Snow Light Snow
4:13 PM 19.4 °F 9.5 °F 14.0 °F 80% 29.47 in 4.0 mi NNW 8.1 mph - N/A Snow Light Snow
4:33 PM 17.6 °F 7.3 °F 12.2 °F 79% 29.48 in 4.0 mi NW 8.1 mph - N/A Snow Light Snow
7:18 PM 10.4 °F -1.5 °F 6.8 °F 85% 29.55 in 7.0 mi WNW 8.1 mph - N/A Snow Light Snow
7:33 PM 10.4 °F -0.4 °F 6.8 °F 85% 29.56 in 10.0 mi NW 6.9 mph - N/A Snow Light Snow
7:53 PM 8.6 °F -3.7 °F 5.0 °F 85% 29.57 in 10.0 mi NW 8.1 mph - N/A   Clear
8:13 PM 8.6 °F 2.0 °F 3.2 °F 79% 29.57 in 10.0 mi NNW 3.5 mph - N/A   Clear
8:33 PM 6.8 °F -4.8 °F 3.2 °F 85% 29.58 in 10.0 mi NNW 6.9 mph - N/A   Clear
8:53 PM 6.8 °F -3.5 °F 1.4 °F 79% 29.59 in 10.0 mi North 5.8 mph - N/A   Clear
9:14 PM 5.0 °F -4.1 °F 1.4 °F 85% 29.60 in 10.0 mi NW 4.6 mph - N/A   Clear
9:33 PM 5.0 °F -9.1 °F -0.4 °F 78% 29.60 in 10.0 mi NW 9.2 mph - N/A   Clear
9:53 PM 3.2 °F -9.1 °F -0.4 °F 85% 29.61 in 10.0 mi NW 6.9 mph - N/A   Clear
10:13 PM 3.2 °F -7.8 °F -0.4 °F 85% 29.61 in 10.0 mi NW 5.8 mph 9.2 mph N/A   Clear
10:33 PM 3.2 °F -9.1 °F -0.4 °F 85% 29.61 in 10.0 mi NNW 6.9 mph - N/A   Clear
10:53 PM 1.4 °F -9.9 °F -2.2 °F 85% 29.62 in 10.0 mi NNW 5.8 mph - N/A   Clear
11:13 PM 1.4 °F -9.9 °F -2.2 °F 85% 29.63 in 10.0 mi NNW 5.8 mph - N/A   Clear
11:33 PM 1.4 °F -9.9 °F -2.2 °F 85% 29.64 in 10.0 mi NNW 5.8 mph - N/A   Clear
11:53 PM -0.4 °F -10.4 °F -4.0 °F 85% 29.65 in 10.0 mi NNW 4.6 mph - N/A   Clear